Showing default

IRIDIUM 45, 25104

Orbit data source: Space-Track

IRIDIUM 45, 25104 is a payload satellite owned by Iridium (US) in LEO that was launched on Sat, 20 Dec 1997 UTC via a DELTA 7920-10C launch vehicle from the Air Force Western Test Range (AFWTR). Payload-class satellites include a variety of spacecraft equipped with specific instruments for various scientific and technological missions. These include communications satellites like Starlink; space stations such as the ISS; scientific satellites like the Hubble; Earth observation satellites from companies like Planet Labs, Umbra, and HawkEye 360; GPS; miniature CubeSats for education and research; and military/defense satellites.

Loading next visibility...
Identifier
25104, 1997-082A
Orbit
LEO
Country
Flag of USUS
Related business
Manufacturer
MOTO/LMMS
Mission
Non-operational Commercial Communications
Bus & Motor
LM700, Unknown motor
Mass
662 kg wet, 556 kg dry
Launch date (UTC)
1997-12-20 (28 years ago)
Launch vehicle
DELTA 7920-10C
Launch site
Air Force Western Test Range (AFWTR)
Object type
Payload
Rocket body
Debris
Shape & HBR
Box + 2 Pan, 4.0 m
Radar Cross Section
5.666 m², Large (>1 m²)

Expand to show TLE details & history
Last TLE update: 8 hours ago

TLE from 8 hours ago
0 IRIDIUM 45
1 25104U 97082A   25311.03021270  .00023874  00000-0  71899-3 0  9996
2 25104  86.3551 338.2437 0104682 152.8819 207.7954 15.28856872473816
Epoch: 2025-11-07T00:43Z
TLE epoch observation values (Epoch: 2025-11-07T00:43:30.377Z)
Latitude
0.00007°
Longitude
-79.1129°
Altitude
546.09 km
Speed
7.554 km/s
True Right ascension
22h 32m 58s
True Declination
0° 00' 00"
Sunlit
Object was in full shadow at epoch
Visualization orbit readout
Latitude
Unknown
Longitude
Unknown
Altitude
Unknown
Speed
Unknown
Apparent Right ascension
Unknown
Apparent Declination
Unknown
Sunlit
N/A
Visualization observer readout
Local Sidereal Time
05:18:28
Azimuth
Unknown
Elevation
Unknown
Doppler factor
Unknown
Orbital elements
Apogee altitude
547.812 km
Perigee altitude
404.31 km
Semi-major axis
6,854.198 km
Eccentricity
0.01047
Inclination
86.3551°
RAAN
338.2437°
Arg. of periapsis
152.8819°
True anomaly
207.24244°
Mean anomaly
207.7954°
Eccentric anomaly
207.51828°
Mean motion
3.8248 °/min
Orbital period
94.12 mins
BSTAR
0.00071899
Loading maneuver chart data...
Computing Atmospheric mass density...

Documentation

Showing up to 5 results
|